[[[{"header":{"parameterUnit":"kt","parameterCategory":2,"dx":1,"dy":1,"la1":30.253999710083008,"la2":30.299108505249023,"lo1":-89.0895004272461,"lo2":-89.04439544677734,"nx":28,"ny":28,"refTime":"2022-10-11T21:00:00:Z","depth":0,"parameterNumber":1,"parameterNumberName":"U-component_of_WINDS"},"data":[-0.9958,-0.9831,-0.9788,-0.9624,-0.9558,-0.944,-0.9384,-0.9308,-0.9237,-0.9092,-0.9002,-0.8948,-0.8862,-0.8746,-0.8648,-0.8627,-0.8587,-0.8574,-0.8551,-0.8648,-0.8658,-0.8668,-0.8694,-0.8567,-0.8567,-0.8455,-0.8454,-0.8453,-1.0035,-0.9967,-0.9868,-0.9742,-0.9657,-0.9644,-0.9545,-0.9475,-0.937,-0.9282,-0.9191,-0.9061,-0.8954,-0.8871,-0.8761,-0.8703,-0.8691,-0.8676,-0.8679,-0.8665,-0.8768,-0.8795,-0.8688,-0.8688,-0.8688,-0.8688,-0.8688,-0.8688,-1.0162,-1.0088,-0.9986,-0.9877,-0.9803,-0.972,-0.9643,-0.9576,-0.948,-0.9358,-0.9327,-0.9208,-0.9113,-0.896,-0.8899,-0.8806,-0.8815,-0.8786,-0.8778,-0.8771,-0.8768,-0.8933,-0.8786,-0.8786,-0.8787,-0.8787,-0.8787,0,-1.0241,-1.021,-1.0111,-1.0,-0.9919,-0.9829,-0.9739,-0.969,-0.9611,-0.9535,-0.9421,-0.9349,-0.9208,-0.9097,-0.8985,-0.8927,-0.8905,-0.89,-0.8879,-0.889,-0.8915,-0.8899,-0.9066,-0.8903,-0.8904,-0.8905,-0.8905,-0.8905,-1.0365,-1.0284,-1.0157,-1.0093,-1.0033,-0.9933,-0.9864,-0.9799,-0.973,-0.9611,-0.955,-0.9438,-0.9345,-0.9173,-0.9097,-0.8992,-0.898,-0.8922,-0.8964,-0.8979,-0.8976,-0.8981,-0.8972,-0.8914,-0.8913,-0.8912,-0.8911,0,-1.0439,-1.0367,-1.0228,-1.0109,-1.0077,-0.9996,-0.9896,-0.982,-0.9764,-0.9652,-0.9622,-0.9534,-0.9424,-0.9357,-0.9219,-0.9188,-0.9056,-0.9048,-0.9088,-0.9082,-0.9022,-0.9028,-0.8842,-0.8813,-0.8947,-0.8946,-0.8945,0,-1.0516,-1.0412,-1.0311,-1.0233,-1.0117,-1.0053,-0.994,-0.9879,-0.9794,-0.9705,-0.967,-0.9588,-0.9514,-0.9423,-0.9376,-0.9257,-0.9232,-0.9199,-0.9188,-0.9201,-0.9204,-0.9161,-0.9166,-0.9167,-0.9168,-0.9169,-0.9169,0,-1.0637,-1.0461,-1.0335,-1.0284,-1.0147,-1.009,-1.0031,-0.9934,-0.9868,-0.9771,-0.9727,-0.9621,-0.9562,-0.9481,-0.942,-0.9451,-0.9273,-0.9303,-0.924,-0.9241,-0.9201,-0.9204,-0.9059,-0.9171,-0.9171,-0.9171,-0.9172,0,-1.0686,-1.0587,-1.0416,-1.03,-1.0257,-1.0175,-1.0063,-0.9977,-0.9879,-0.9843,-0.9766,-0.9733,-0.9624,-0.9658,-0.9506,-0.9563,-0.9507,-0.9467,-0.9461,-0.9444,-0.9483,-0.9407,-0.9278,-0.9261,-0.9434,-0.9436,-0.9438,0,-1.0844,-1.0651,-1.0593,-1.0433,-1.0334,-1.0298,-1.0206,-1.0119,-1.0063,-0.9973,-0.9912,-0.9809,-0.982,-0.9778,-0.9713,-0.9645,-0.9572,-0.9654,-0.9524,-0.9521,-0.9549,-0.9429,-0.9425,-0.9315,-0.9465,-0.9462,-0.946,0,-1.0956,-1.0788,-1.0763,-1.07,-1.0573,-1.049,-1.0386,-1.0268,-1.0211,-1.0118,-1.0027,-0.9883,-0.9884,-0.9816,-0.9777,-0.9712,-0.962,-0.9723,-0.9719,-0.9705,-0.9473,-0.947,-0.9451,-0.9609,-0.9606,-0.9603,-0.9482,0,-1.1044,-1.0938,-1.0868,-1.0732,-1.0658,-1.0553,-1.0477,-1.0409,-1.0379,-1.0321,-1.0188,-1.0099,-0.998,-0.9942,-0.9912,-0.9784,-0.9794,-0.9797,-0.9823,-0.9746,-0.9704,-0.9687,-0.9892,-0.9892,-0.9893,-0.9893,0,0,-1.1211,-1.1057,-1.0996,-1.0889,-1.0822,-1.0785,-1.068,-1.0611,-1.0471,-1.0426,-1.0441,-1.0223,-1.0149,-0.9995,-0.9966,-0.9918,-0.9888,-0.9917,-0.9784,-0.9772,-0.9761,-0.9717,-0.9701,-0.9893,-0.9893,-0.9893,-0.9894,0,-1.1226,-1.115,-1.1046,-1.0971,-1.0857,-1.08,-1.0775,-1.0656,-1.0614,-1.0483,-1.0454,-1.0365,-1.0193,-1.0117,-1.0057,-0.9935,-0.9917,-0.9905,-0.9864,-0.9789,-0.9777,-0.9766,-0.9721,-0.9706,-0.9894,-0.9894,-0.9894,0,-1.1322,-1.1233,-1.1174,-1.1019,-1.0944,-1.0844,-1.0852,-1.0746,-1.0671,-1.0635,-1.0505,-1.0445,-1.0338,-1.0203,-1.014,-1.0151,-0.9948,-0.9999,-0.9995,-0.9986,-0.991,-0.9895,-0.9882,-1.0052,-1.0053,-1.0054,0,0,-1.1345,-1.1246,-1.1129,-1.1016,-1.0971,-1.0884,-1.0823,-1.0785,-1.0689,-1.0651,-1.0572,-1.048,-1.0379,-1.0314,-1.0215,-1.0078,-1.005,-1.0021,-1.0014,-1.0008,-0.9996,-0.9918,-0.9904,-1.0057,-1.0057,-1.0057,0,0,-1.1356,-1.1216,-1.1201,-1.106,-1.0969,-1.0847,-1.0781,-1.076,-1.0663,-1.0666,-1.0598,-1.057,-1.0443,-1.0384,-1.0436,-1.0222,-1.025,-1.0236,-1.0264,-1.0254,-1.0246,-1.0262,-1.0431,0,0,0,0,0,-1.1331,-1.1233,-1.1221,-1.1186,-1.0989,-1.0854,-1.0828,-1.0769,-1.0789,-1.0738,-1.0669,-1.0654,-1.0398,-1.0443,-1.0409,-1.0351,-1.0099,-1.0091,-1.0084,-1.0088,-1.0078,-1.007,0,0,0,0,0,0,-1.1317,-1.1274,-1.1224,-1.1099,-1.1054,-1.0857,-1.0878,-1.0859,-1.0793,-1.0792,-1.0668,-1.065,-1.0598,-1.0456,-1.0426,-1.0372,-1.0441,-1.0096,-1.0089,-1.0084,-1.0085,-1.0077,-1.007,0,0,0,0,0,-1.1305,-1.127,-1.0969,-1.1099,-1.106,-1.0958,-1.0881,-1.0865,-1.0813,-1.0705,-1.0687,-1.0774,-1.0598,-1.0569,-1.0438,-1.0387,-1.0461,-1.045,-1.0092,-1.0087,-1.0082,-1.0081,0,0,0,0,0,0,-1.1296,-1.1255,-1.096,-1.0946,-1.1131,-1.0968,-1.094,-1.0871,-1.073,-1.0711,-1.0808,-1.0809,-1.0597,-1.0575,-1.0553,-1.0395,-1.0477,-1.0466,-1.0459,-1.0088,-1.0084,-1.0081,0,0,0,0,0,0,-1.1273,-1.1244,-1.0953,-1.0996,-1.0987,-1.0977,-1.0952,-1.0832,-1.0729,-1.0841,-1.0837,-1.081,-1.063,-1.0578,-1.0561,-1.0376,-1.0489,-1.0479,-1.0472,-1.0467,-1.0085,-1.0082,0,0,0,0,0,0,-1.126,-1.1234,-1.1,-1.0992,-1.0984,-1.0822,-1.087,-1.0672,-1.0765,-1.0848,-1.0772,-1.0775,-1.0634,-1.0615,-1.0567,-1.0389,-1.0379,-1.0489,-1.0482,-1.0477,-1.0473,0,0,0,0,0,0,0,-1.1249,-1.1435,-1.1043,-1.0989,-1.0981,-1.0816,-1.0813,-1.0809,-1.0765,-1.0768,-1.0771,-1.0773,-1.0548,-1.0537,-1.0525,-1.04,0,0,-1.049,-1.0485,0,0,0,0,0,0,0,0,-1.1444,-1.1437,-1.1043,-1.104,-1.1037,-1.0816,-1.0813,-1.081,-1.0766,-1.0768,-1.077,-1.0772,-1.0545,-1.0536,-1.0527,0,0,0,0,0,0,0,0,0,0,0,0,0,0,0,-1.1043,-1.104,0,-1.0815,-1.0813,-1.081,-1.0766,-1.0768,-1.077,-1.0772,-1.0543,-1.0535,-1.0527,0,0,0,0,0,0,0,0,0,0,0,0,0,0,0,0,0,0,0,0,0,0,0,0,0,0,0,0,0,0,0,0,0,0,0,0,0,0,0,0,0,0,0,0,0,0,0,0,0,0,0,0,0,0,0,0,0,0,0,0,0,0,0,0,0,0,0,0,0]}],[{"header":{"parameterUnit":"kt","parameterCategory":2,"dx":1,"dy":1,"la1":30.253999710083008,"la2":30.299108505249023,"lo1":-89.0895004272461,"lo2":-89.04439544677734,"nx":28,"ny":28,"refTime":"2022-10-11T21:00:00:Z","depth":0,"parameterNumber":2,"parameterNumberName":"V-component_of_WINDS"},"data":[4.3159,4.3149,4.3098,4.3062,4.301,4.2976,4.2946,4.2903,4.2854,4.2805,4.2767,4.2711,4.2639,4.2578,4.2532,4.2507,4.2492,4.2529,4.2494,4.2379,4.236,4.2341,4.2342,4.2526,4.2527,4.262,4.2621,4.2622,4.3088,4.3037,4.3002,4.2933,4.2903,4.2838,4.2776,4.2754,4.2724,4.2662,4.2621,4.2572,4.2525,4.2436,4.2381,4.2373,4.2337,4.2362,4.2362,4.2352,4.2227,4.2228,4.2392,4.2392,4.2392,4.2392,4.2392,4.2392,4.2944,4.294,4.2868,4.2828,4.2778,4.2732,4.2717,4.2648,4.261,4.2548,4.2488,4.2451,4.2376,4.2279,4.2232,4.22,4.2162,4.217,4.2173,4.2177,4.2191,4.207,4.2187,4.2186,4.2185,4.2185,4.2184,0,4.2823,4.2781,4.2742,4.2689,4.2656,4.2608,4.2554,4.2543,4.2426,4.24,4.2356,4.2321,4.225,4.2201,4.2134,4.208,4.2005,4.1989,4.1996,4.2027,4.2065,4.2047,4.185,4.1986,4.1984,4.1983,4.1982,4.1981,4.2677,4.2676,4.2571,4.2552,4.2508,4.2476,4.2445,4.2342,4.2314,4.223,4.2228,4.2177,4.2131,4.2065,4.1978,4.1923,4.1885,4.1945,4.1876,4.1907,4.1889,4.1891,4.1891,4.196,4.1963,4.1965,4.1967,0,4.26,4.2511,4.2491,4.2385,4.2358,4.2361,4.2269,4.2257,4.2188,4.2162,4.215,4.204,4.1996,4.1898,4.1825,4.1776,4.1779,4.1742,4.1807,4.1794,4.184,4.1838,4.1995,4.2012,4.1817,4.1819,4.182,0,4.244,4.2441,4.2308,4.23,4.2298,4.2193,4.2193,4.2133,4.2065,4.2043,4.1942,4.1923,4.1799,4.1765,4.1691,4.1675,4.166,4.1621,4.1602,4.1632,4.1637,4.1613,4.1605,4.1554,4.1553,4.1552,4.1552,0,4.233,4.2257,4.2244,4.2212,4.2097,4.2092,4.2043,4.1965,4.1934,4.1877,4.1855,4.1795,4.1763,4.1718,4.1623,4.1581,4.16,4.1522,4.156,4.1563,4.157,4.1571,4.1735,4.1551,4.1551,4.1551,4.155,0,4.2186,4.2134,4.2127,4.2029,4.2013,4.2003,4.1939,4.1907,4.183,4.1783,4.1736,4.1656,4.1632,4.1563,4.1528,4.1501,4.1474,4.1433,4.1434,4.1426,4.1352,4.146,4.1626,4.164,4.142,4.1419,4.1418,0,4.2087,4.2054,4.1964,4.1958,4.1929,4.1819,4.1805,4.174,4.1675,4.164,4.1566,4.1525,4.1452,4.1425,4.1421,4.1343,4.1379,4.1335,4.1284,4.1284,4.1312,4.1462,4.1513,4.1601,4.1403,4.1404,4.1405,0,4.1997,4.1856,4.1861,4.182,4.1717,4.169,4.1674,4.161,4.1593,4.1527,4.1511,4.1448,4.1391,4.1346,4.1272,4.1273,4.1351,4.121,4.1206,4.1241,4.1385,4.1434,4.1449,4.1302,4.1303,4.1305,4.1393,0,4.1805,4.1775,4.1784,4.1695,4.1659,4.1648,4.1543,4.1518,4.1453,4.1384,4.1355,4.127,4.1201,4.1189,4.1122,4.1156,4.1134,4.1072,4.0997,4.1096,4.1122,4.1133,4.0967,4.0964,4.0961,4.0959,0,0,4.1733,4.1687,4.1585,4.1564,4.1528,4.141,4.1408,4.1357,4.1257,4.1233,4.1191,4.109,4.1022,4.0997,4.102,4.099,4.0987,4.0954,4.1049,4.1059,4.1069,4.1099,4.1112,4.0955,4.0954,4.0953,4.0952,0,4.1641,4.1578,4.1577,4.1521,4.1434,4.136,4.1361,4.1251,4.1206,4.1176,4.1077,4.1045,4.0965,4.0907,4.0867,4.0955,4.0881,4.0942,4.1027,4.1028,4.1042,4.1054,4.1087,4.11,4.0946,4.0947,4.0947,0,4.1535,4.1457,4.1445,4.1354,4.1294,4.1264,4.1161,4.1133,4.1109,4.0977,4.0948,4.0885,4.0797,4.0786,4.0776,4.0736,4.0792,4.0753,4.0765,4.0761,4.0757,4.0773,4.0788,4.0593,4.0593,4.0592,0,0,4.147,4.144,4.132,4.1325,4.1295,4.1185,4.1157,4.1087,4.1012,4.0982,4.09,4.0828,4.078,4.0751,4.07,4.0702,4.0675,4.0714,4.073,4.0744,4.0749,4.0748,4.0765,4.0589,4.0589,4.0589,0,0,4.1437,4.13,4.1247,4.124,4.1174,4.1053,4.106,4.0991,4.0934,4.0923,4.08,4.0776,4.0763,4.0704,4.0678,4.0671,4.0598,4.0601,4.071,4.0729,4.0745,4.076,4.0557,0,0,0,0,0,4.1288,4.1317,4.1271,4.1254,4.1135,4.108,4.1064,4.0965,4.0918,4.0926,4.0846,4.0766,4.0665,4.064,4.0623,4.0652,4.0552,4.0559,4.0565,4.0704,4.0726,4.0744,0,0,0,0,0,0,4.128,4.126,4.1269,4.1153,4.1125,4.1078,4.0976,4.095,4.0914,4.09,4.0785,4.0763,4.0675,4.0642,4.0628,4.0658,4.0561,4.0555,4.056,4.0565,4.0711,4.0729,4.0744,0,0,0,0,0,4.1274,4.1257,4.1093,4.1151,4.1127,4.1004,4.0974,4.0951,4.0922,4.0797,4.0773,4.0851,4.0679,4.066,4.0633,4.0667,4.057,4.0565,4.0558,4.0563,4.0566,4.072,0,0,0,0,0,0,4.1269,4.1235,4.1086,4.1074,4.1133,4.1004,4.0981,4.0953,4.0818,4.0795,4.0857,4.0847,4.0682,4.0667,4.0653,4.0676,4.0577,4.0572,4.0569,4.0561,4.0565,4.0568,0,0,0,0,0,0,4.1243,4.1226,4.108,4.1062,4.1047,4.1005,4.0985,4.0945,4.0818,4.0885,4.0873,4.0854,4.0701,4.0672,4.0661,4.0603,4.0582,4.0578,4.0575,4.0573,4.0564,4.0567,0,0,0,0,0,0,4.1234,4.122,4.1064,4.1053,4.104,4.0908,4.0968,4.085,4.0807,4.0892,4.0799,4.0796,4.0708,4.0694,4.0666,4.0614,4.0606,4.0582,4.0579,4.0577,4.0575,0,0,0,0,0,0,0,4.1227,4.1347,4.1152,4.1046,4.1035,4.0972,4.0969,4.0966,4.0806,4.0803,4.08,4.0798,4.0608,4.0603,4.0598,4.0623,0,0,4.0583,4.058,0,0,0,0,0,0,0,0,4.1351,4.1348,4.1152,4.115,4.1147,4.0971,4.0969,4.0966,4.0805,4.0803,4.0801,4.0799,4.0607,4.0603,4.0599,0,0,0,0,0,0,0,0,0,0,0,0,0,0,0,4.1152,4.115,0,4.0971,4.0969,4.0967,4.0805,4.0803,4.0801,4.0799,4.0606,4.0602,4.0599,0,0,0,0,0,0,0,0,0,0,0,0,0,0,0,0,0,0,0,0,0,0,0,0,0,0,0,0,0,0,0,0,0,0,0,0,0,0,0,0,0,0,0,0,0,0,0,0,0,0,0,0,0,0,0,0,0,0,0,0,0,0,0,0,0,0,0,0,0]}]]]